Regional Weather Roundup
Issued by NWS

Home | Current Version | Previous Version | Text Only | Print | Product List | Glossary Off
Versions: 1 2 3 4 5 6 7 8 9 10 11 12 13 14 15 16 17 18 19 20 21 22 23 24 25 26 27 28 29 30 31 32 33 34 35 36 37 38 39 40 41 42 43 44 45 46 47 48 49 50

533
ASUS43 KIND 091509
RWRIN

WEATHER ROUNDUP FOR INDIANA
NATIONAL WEATHER SERVICE INDIANAPOLIS IN
1000 AM EST FRI DEC 09 2016

NOTE: "FAIR" INDICATES FEW OR NO CLOUDS BELOW 12,000 FEET WITH NO
SIGNIFICANT WEATHER AND/OR OBSTRUCTIONS TO VISIBILITY.

* - STATION DOES NOT REPORT WEATHER SUCH AS PRECIPITATION OR FOG.

+ - STATION NOT QUALITY CONTROLLED BY THE NATIONAL WEATHER SERVICE.
    USE DATA WITH CAUTION...ESPECIALLY DEWPOINT AND RELATIVE
    HUMIDITY OBSERVATIONS.

INZ001>003-010>013-019-020-091600-
NORTHWEST INDIANA

CITY           SKY/WX    TMP DP  RH WIND       PRES   REMARKS
GARY /AIRPORT/ CLOUDY    27  19  74 W13       30.53R WCI  16
KNOX *+        PTSUNNY   27   3  36 W17G24    30.49R WCI  14
LA PORTE +     PTSUNNY   24  19  80 W15G22    30.48R WCI  12
MICHIGAN CITY+ CLOUDY    28  19  69 W12G18    30.49R WCI  18
MONTICELLO +   CLOUDY    23  16  73 W10       30.53R WCI  13
RENSSELAER +     N/A     25  21  86 W10       30.53R WCI  15
VALPARAISO     CLOUDY    24  17  74 W13       30.51R WCI  12

$$

LMZ046-743>745-091600-
SOUTHERN LAKE MICHIGAN

STATION/POSITION TIME  TEMP    WIND        PRES    WAVE
                       AIR SEA DIR/SP/G            HT
                 (UTC) (F)     (DEG/KT/KT) (MB)    (FT)

$$

INZ004-005-014>016-021>024-091600-
NORTH CENTRAL INDIANA

CITY           SKY/WX    TMP DP  RH WIND       PRES   REMARKS
ELKHART        LGT SNOW  27  21  80 W12       30.44R WCI  16
GOSHEN         MOSUNNY   25  18  74 W13       30.45R WCI  14
LOGANSPORT +   CLOUDY    23  19  86 W14G20    30.52R WCI  11
PERU/GRISSOM   CLOUDY    23  19  85 W14       30.49R WCI  10
ROCHESTER +    PTSUNNY   28  23  80 W9G17     30.49R WCI  20
SOUTH BEND     LGT SNOW  25  22  88 W12       30.46R FOG     WCI  14
WARSAW +       CLOUDY    23  18  80 W12       30.46R WCI  12

$$

INZ006>009-017-018-025>027-091600-
NORTHEAST INDIANA

CITY           SKY/WX    TMP DP  RH WIND       PRES   REMARKS
ANGOLA *+      CLOUDY    25  21  86 W12       30.41R WCI  14
AUBURN +       PTSUNNY   27  21  80 W12G17    30.45R WCI  16
FORT WAYNE     FLURRIES  23  18  81 W14       30.47R WCI  11
HUNTINGTON +   MOSUNNY   23  18  80 W15G21    30.48R WCI  10
KENDALLVILLE + LGT SNOW  24  20  87 W15G21    30.43R WCI  11

$$

INZ028-029-035-036-043>045-051>053-091600-
WEST CENTRAL INDIANA

CITY           SKY/WX    TMP DP  RH WIND       PRES   REMARKS
CRAWFORDSVL +  CLOUDY    21  17  83 W9        30.54S WCI  11
GREENCASTLE +  CLOUDY    23  18  80 SW3       30.55S
LAFAYETTE      FLURRIES  23  18  81 W13       30.55R WCI  11
TERRE HAUTE    CLOUDY    23  13  65 W9        30.60R WCI  13

$$

INZ030>032-037>040-046>048-054>057-064-065-091600-
CENTRAL INDIANA

CITY           SKY/WX    TMP DP  RH WIND       PRES   REMARKS
ANDERSON       MOSUNNY   21  18  86 W6        30.52R WCI  14
CP ATTERBURY + FLURRIES  25  16  68 W8        30.57R WCI  16
FISHERS *+     CLOUDY    21  19  93 W9        30.54R WCI  11
FRANKFORT +    FLURRIES  25  20  80 W13       30.54R WCI  14
GREENWOOD *+   CLOUDY    23  17  77 W10       30.55R WCI  12
INDIANAPOLIS   FLURRIES  22  16  78 W12       30.54R WCI  10
-EAGLE CREEK   CLOUDY    23  16  74 W7        30.53R WCI  15
KOKOMO +       CLOUDY    22  19  89 W16       30.51R WCI   8
MARION +       CLOUDY    21  18  86 W16       30.51R WCI   7
MT COMFORT *+  CLOUDY    21  16  79 W10       30.53R WCI  10
SHELBYVILLE    CLOUDY    23  15  71 W10       30.54R WCI  12
ZIONSVILLE +   FLURRIES  21  17  83 W12       30.53R WCI   9

$$

INZ033-034-041-042-049-050-058-059-091600-
EAST CENTRAL INDIANA

CITY           SKY/WX    TMP DP  RH WIND       PRES   REMARKS
MUNCIE         CLOUDY    22  17  81 W12       30.50R WCI  10

$$

INZ060-061-067>069-081>083-085>088-091600-
SOUTHWEST INDIANA

CITY           SKY/WX    TMP DP  RH WIND       PRES   REMARKS
EVANSVILLE     CLOUDY    24  13  62 NW6       30.64R WCI  17
HUNTINGBURG *+ FLURRIES  22  14  71 NW7       30.62S WCI  13
WASHINGTON +   FLURRIES  23  18  81 W3        30.62R

$$

INZ062-063-066-070>080-084-089>092-091600-
SOUTH CENTRAL AND SOUTHEAST INDIANA

CITY           SKY/WX    TMP DP  RH WIND       PRES   REMARKS
BLOOMINGTON    LGT SNOW  22  13  68 W6        30.57R WCI  14
MADISON *+     CLOUDY    23  14  68 W7        30.60R WCI  15
NORTH VERNON + FLURRIES  23  19  86 W8        30.57R WCI  14
SEYMOUR +      CLOUDY    25  12  58 W10       30.60R WCI  15

$$





USA.gov is the U.S. government's official web portal to all federal, state and local government web resources and services.